Theta_e
324 324 324 323 321 320 320 320 322 321 321 317 315 314 313 311 310 310 308 307 308 308 307 309 310 309 309 309 309 309 310 308 308 310 310 311 312 312 310 309 308 306 302 300
322 321 322 322 321 319 320 320 319 319 319 317 315 313 312 311 310 307 309 309 308 307 307 306 307 308 309 308 308 308 307 308 308 307 308 308 310 312 311 309 306 304 302 300
322 320 320 321 319 319 318 317 318 319 318 315 313 313 312 308 306 308 308 307 306 305 305 306 307 307 308 308 307 307 307 307 309 309 308 308 310 311 308 307 306 302 301 300
318 318 320 316 315 317 317 317 316 316 315 313 313 311 306 304 306 307 306 306 306 304 304 304 305 305 306 308 307 307 306 307 309 309 309 309 310 310 308 306 305 303 301 299
318 319 317 316 314 312 311 311 311 309 308 308 306 306 305 306 305 305 305 304 303 305 304 304 303 304 304 307 306 306 306 307 308 308 307 306 306 308 308 307 303 302 301 298
315 317 320 314 309 309 312 313 309 308 309 307 306 305 304 302 303 304 304 304 303 303 304 303 303 304 304 305 305 304 305 304 304 306 306 305 304 304 305 305 305 301 298 298
316 318 317 313 310 308 312 311 307 306 305 304 304 303 302 303 302 301 301 301 302 301 303 303 303 304 303 304 304 305 304 301 302 305 304 303 302 301 301 301 301 299 297 296
315 316 317 312 311 310 309 307 306 306 305 305 303 302 302 300 299 299 299 299 299 300 300 303 303 304 303 303 304 302 301 298 301 302 302 301 299 298 297 297 295 294 294 293
313 313 311 308 311 308 307 305 305 302 301 300 300 300 299 298 298 298 298 299 300 300 301 302 303 303 303 303 301 301 299 297 300 300 299 298 296 295 294 294 294 292 291 290
312 311 309 309 307 306 305 303 300 298 298 299 299 299 298 298 297 297 298 299 302 302 302 302 302 303 303 302 302 301 298 297 298 298 297 296 295 294 293 291 291 290 290 289
311 310 309 308 306 301 300 299 299 299 299 299 299 298 298 298 298 298 300 300 300 301 302 302 302 303 303 302 301 300 298 298 297 296 296 295 295 294 293 292 291 291 290 290
309 307 306 302 300 300 299 299 299 300 299 299 298 299 300 300 299 299 299 300 300 301 300 301 302 302 301 300 299 302 300 298 297 296 295 295 294 292 292 292 291 292 292 292
303 300 300 299 299 301 301 300 300 300 300 300 300 300 299 298 298 298 298 298 297 298 299 300 301 300 300 301 301 303 301 299 297 296 296 294 293 293 291 291 291 291 291 291
299 298 299 302 301 300 300 299 299 299 298 298 297 297 297 296 297 296 296 295 296 297 298 298 298 297 298 299 299 300 301 298 297 295 294 294 294 293 292 291 290 290 290 291
300 300 300 300 299 298 297 296 296 296 295 295 294 294 294 294 294 294 294 294 295 296 295 294 293 294 295 296 297 297 297 297 296 295 294 293 293 293 292 292 291 291 290 290
300 299 299 299 298 297 295 294 294 293 293 294 293 294 293 293 293 293 293 293 294 293 292 291 291 291 292 294 296 296 296 296 295 294 293 293 292 292 291 291 291 291 290 290
298 298 298 298 296 295 294 293 292 293 292 292 292 292 291 291 291 292 291 291 292 292 290 289 289 290 291 292 293 294 294 294 294 293 293 292 292 291 291 291 290 291 290 291
296 296 295 296 295 294 293 293 293 293 292 292 291 290 290 290 290 291 290 289 291 290 289 289 289 289 290 291 291 292 292 292 292 292 292 290 291 291 291 290 291 291 290 290
295 296 295 295 294 293 292 291 290 290 291 290 289 289 288 288 290 290 289 289 289 289 289 288 288 288 288 289 290 292 292 291 291 291 291 290 290 290 290 290 290 289 289 288
294 293 293 293 291 290 289 289 289 289 289 289 289 288 288 289 289 289 289 288 288 287 287 286 287 287 288 288 290 290 291 291 290 290 290 289 289 289 288 288 288 288 288 287
292 291 288 286 284 289 289 289 289 289 289 290 289 288 288 288 288 288 288 288 288 286 286 287 287 287 288 288 289 288 289 289 288 288 288 288 288 288 287 286 286 285 284 284
289 287 283 286 286 287 290 290 290 290 290 289 289 288 288 288 288 288 288 288 287 287 286 286 286 286 287 287 287 287 287 287 287 287 287 286 285 284 283 282 282 281 281 282
289 290 289 286 285 287 288 288 288 288 288 289 289 288 287 287 288 288 287 286 286 285 285 284 285 286 286 286 285 285 284 284 283 283 283 282 282 281 280 280 279 279 279 279
288 287 287 287 287 287 287 288 288 288 289 289 289 289 288 287 287 286 287 285 284 283 282 283 284 284 283 283 282 282 281 281 280 280 279 279 279 278 278 277 276 276 276 276
287 287 287 286 285 285 286 286 286 286 287 287 288 289 288 287 286 284 283 282 281 281 281 281 281 281 281 280 279 279 278 278 278 277 277 276 276 275 275 274 274 273 273 273
286 285 285 285 285 285 285 285 284 284 285 285 285 286 286 285 285 282 280 279 279 278 278 278 278 277 277 276 276 276 275 275 275 275 274 274 273 273 273 272 272 271 271 271
285 285 284 284 284 283 282 282 283 283 284 284 285 285 284 282 281 280 279 277 276 276 275 275 275 275 275 274 274 274 273 273 273 272 272 272 271 271 270 270 270 270 270 270
Wind_Speed
18 20 19 20 20 13 16 18 10 26 19 9 5 3 5 5 5 6 2 6 6 4 4 8 12 13 12 10 12 14 16 19 21 19 16 16 16 23 26 25 26 26 24 28
14 18 16 21 23 20 22 23 18 25 32 10 6 4 5 7 4 6 6 6 6 6 6 7 12 16 22 19 16 20 23 18 20 21 20 23 21 21 24 25 26 25 28 31
10 8 7 14 22 23 22 20 18 22 29 8 7 7 9 2 6 7 6 6 5 5 5 11 17 19 17 17 18 23 17 15 13 19 27 25 18 18 20 25 26 29 30 31
2 1 6 8 5 12 18 18 16 19 18 11 13 8 6 6 9 7 5 3 1 1 4 11 15 20 21 20 20 18 21 18 10 8 3 4 12 17 20 23 26 28 29 32
4 7 8 15 7 4 6 11 8 6 5 4 7 6 6 7 7 6 5 5 7 10 10 12 12 15 19 17 16 10 10 23 10 7 5 1 3 7 13 19 25 29 30 30
4 5 8 4 3 4 5 16 7 4 4 6 4 3 3 3 4 3 4 9 12 16 17 13 12 10 12 13 17 17 14 21 16 9 6 3 4 6 11 15 22 26 27 28
13 9 6 12 3 2 7 3 5 7 6 7 4 4 3 3 4 5 9 17 17 18 13 16 9 6 8 15 19 21 18 24 15 10 8 7 7 9 8 9 12 18 22 23
7 7 11 11 7 12 5 5 6 5 4 4 3 3 3 4 5 5 6 10 19 18 18 11 7 7 7 11 17 16 14 15 6 6 6 3 4 5 5 7 11 15 19 18
8 5 3 1 3 6 5 6 4 4 2 2 3 3 4 3 5 5 8 13 17 15 14 8 10 9 9 14 14 22 12 13 5 5 4 4 6 6 6 8 12 14 15 14
6 8 4 2 6 3 4 4 6 6 5 3 2 3 4 4 5 5 8 5 12 15 11 11 17 15 5 13 16 18 13 8 6 5 4 5 5 5 6 9 11 14 14 12
7 10 4 4 1 5 6 5 5 4 4 2 3 5 4 5 6 4 7 12 14 14 14 17 23 11 8 8 10 17 14 7 5 6 7 7 6 4 3 8 11 14 15 18
3 5 6 2 5 6 6 5 7 6 6 7 6 6 7 7 7 9 9 14 13 14 15 18 14 3 5 5 8 22 18 15 10 10 10 8 7 4 2 2 6 7 9 15
2 4 6 6 7 10 10 8 9 7 6 7 7 8 7 5 9 11 12 12 13 15 18 16 12 10 9 9 11 10 19 19 15 10 8 10 9 8 6 3 4 5 7 12
6 6 6 10 4 7 8 9 9 8 10 9 10 12 9 6 7 8 10 14 15 14 13 13 13 13 10 7 2 8 16 15 12 10 8 7 8 9 8 8 7 6 7 10
10 11 8 6 8 7 7 7 7 6 6 5 10 7 8 5 5 8 12 14 13 11 9 11 11 12 13 10 4 4 9 10 8 8 7 6 7 7 6 7 8 9 10 11
9 9 7 7 6 6 6 7 5 4 5 5 6 6 8 8 10 12 15 14 12 7 10 9 8 10 9 7 2 5 7 7 8 7 6 6 6 6 6 8 10 12 13 16
8 6 6 7 5 5 6 6 4 2 3 4 3 6 8 10 11 11 13 17 16 12 8 5 6 6 5 2 3 2 2 5 6 6 6 5 4 4 5 7 10 12 14 15
9 8 6 5 4 3 4 3 2 3 3 5 6 9 9 7 7 10 13 15 10 7 6 7 6 4 3 1 1 2 5 6 7 6 5 4 3 2 2 5 8 10 10 13
6 7 6 5 3 3 3 4 4 6 5 6 8 6 9 12 12 11 11 8 6 6 2 6 4 3 4 2 2 4 5 6 6 6 6 5 5 4 3 3 3 3 6 8
6 5 3 4 3 1 2 4 4 6 8 7 8 9 7 11 10 9 7 4 3 4 5 4 3 2 3 3 2 4 6 8 10 10 10 10 10 10 9 9 8 7 5 4
5 5 4 3 3 5 7 8 4 7 10 8 8 8 8 12 13 8 6 3 6 1 1 1 1 1 2 4 6 8 11 11 12 12 13 14 16 16 16 16 15 15 17 19
4 4 5 7 4 7 10 11 11 13 13 11 9 10 10 10 13 11 8 4 5 4 4 2 1 3 6 9 11 13 15 16 16 17 18 19 19 19 19 19 19 20 20 20
2 1 4 4 0 5 10 13 15 17 18 15 15 10 11 11 11 8 4 8 8 7 5 3 5 8 10 12 14 15 16 17 18 20 20 20 20 20 19 19 18 18 18 18
2 6 4 7 9 9 6 14 14 14 13 13 16 16 12 11 8 8 10 14 11 8 6 7 10 12 14 15 15 16 17 17 17 18 20 20 20 19 18 18 18 17 16 15
4 1 7 9 4 4 9 15 17 17 15 11 12 18 15 13 11 14 12 12 12 12 13 12 13 14 16 17 18 19 19 19 19 19 19 19 20 20 19 18 16 15 15 15
1 3 7 9 9 11 13 12 9 14 15 15 17 15 13 12 17 17 15 15 15 15 15 15 16 17 18 19 20 20 20 20 20 20 20 20 19 19 19 18 17 17 17 16
4 6 8 8 9 12 13 14 13 12 16 19 17 18 17 19 20 22 22 21 18 17 17 16 15 17 19 19 20 20 20 19 19 20 20 20 19 19 18 17 16 16 15 14
Wind_Direction
242 253 262 276 271 267 268 264 254 274 252 261 225 224 220 223 249 244 135 71 81 67 44 33 16 0 354 321 304 311 284 279 279 277 265 265 239 229 227 233 229 229 225 216
256 253 256 267 262 252 250 253 252 263 271 227 252 269 271 255 277 87 91 82 61 40 26 13 350 330 317 291 280 276 267 287 291 274 263 265 243 223 219 225 225 221 221 218
256 227 241 258 250 242 248 246 242 249 257 286 260 255 257 174 105 109 91 80 57 29 359 345 334 328 317 307 315 306 272 295 327 308 268 261 239 225 218 222 220 220 220 218
249 136 227 248 246 213 223 239 234 252 264 271 270 268 116 98 108 104 96 76 309 236 305 317 316 319 328 320 314 298 327 321 339 360 13 172 207 213 212 216 222 224 225 221
219 214 316 295 262 229 220 257 189 209 240 243 111 101 54 108 121 145 173 215 233 251 235 260 284 304 318 317 319 289 311 296 323 322 292 293 216 223 221 215 212 221 224 214
164 221 228 234 80 16 211 260 202 191 112 82 88 113 219 111 126 159 247 263 265 265 248 244 273 283 309 306 306 296 273 291 297 310 238 239 273 250 248 241 232 215 208 215
225 240 252 245 227 52 190 224 79 91 87 74 95 171 220 9 22 340 312 308 308 308 255 258 262 280 291 300 292 269 278 289 287 281 226 224 261 253 248 238 223 199 188 189
214 236 252 209 219 199 182 142 126 113 88 67 45 351 9 12 343 325 312 308 306 299 290 268 281 266 283 302 307 282 274 270 255 204 204 241 217 212 201 188 170 165 165 164
198 209 205 115 189 103 128 145 142 108 83 50 13 12 350 323 324 309 300 299 308 318 315 332 336 278 250 304 284 274 264 256 211 210 211 206 183 183 174 178 175 172 168 167
155 240 187 177 97 110 148 114 81 83 84 67 24 337 308 295 282 270 279 335 5 346 343 324 307 279 223 334 282 240 239 220 207 188 198 191 170 171 184 192 184 175 165 166
240 266 344 190 342 82 64 95 89 57 50 16 317 287 263 265 278 340 39 14 0 353 351 338 320 268 275 282 285 203 200 184 194 184 202 186 178 195 215 224 214 196 191 186
201 183 130 140 69 61 54 37 35 31 6 338 327 4 40 60 50 20 2 4 15 355 348 348 4 344 345 276 262 222 185 172 185 202 194 189 176 162 166 248 233 224 221 213
131 56 117 120 74 66 74 46 35 29 7 14 50 60 60 55 29 1 354 356 355 338 339 347 333 330 347 4 356 219 190 178 170 191 200 201 200 185 170 160 201 229 213 205
86 115 89 53 87 87 72 50 35 21 45 40 38 29 27 23 8 343 334 330 331 332 350 7 23 20 16 19 104 150 161 160 150 184 200 209 216 211 199 184 186 194 205 202
89 83 91 81 69 74 74 58 42 27 14 19 20 14 30 11 357 329 328 322 324 332 348 339 342 337 341 352 352 103 137 137 146 171 189 206 207 198 220 224 219 215 194 195
88 93 96 93 86 87 78 71 61 9 354 0 336 10 8 350 335 333 327 328 326 314 322 329 331 336 334 336 326 149 133 148 167 174 173 194 203 192 202 222 223 217 212 203
113 106 111 106 93 81 77 96 92 29 309 320 3 355 344 330 322 317 321 319 308 293 311 319 324 333 352 342 79 57 134 158 170 167 181 183 184 206 224 229 227 221 222 223
89 90 80 102 84 61 79 82 11 26 28 13 360 350 330 321 304 298 314 322 312 302 290 313 316 311 335 341 96 131 166 164 159 160 167 174 151 168 218 234 230 227 229 228
117 123 128 110 100 49 37 40 34 356 353 337 328 309 313 298 291 305 318 316 306 303 306 322 322 308 304 307 223 185 177 161 160 161 164 144 129 143 155 170 174 193 216 214
101 91 93 72 47 20 307 305 343 333 307 304 299 303 287 299 310 312 315 285 300 281 303 306 321 321 348 318 197 191 185 174 160 151 143 131 125 113 107 103 98 106 108 129
162 171 168 182 234 267 283 291 270 270 271 283 276 277 276 295 298 281 279 285 214 268 288 326 330 6 89 119 127 130 136 141 138 134 127 121 116 108 100 96 89 85 83 88
185 184 209 219 229 264 280 279 278 264 259 261 266 293 287 281 286 259 241 259 195 163 176 218 125 146 124 124 119 117 114 115 111 112 109 107 102 98 94 95 94 97 98 97
156 153 124 120 254 308 311 303 296 285 270 265 257 269 280 274 278 243 203 196 187 172 184 187 143 137 129 124 121 115 112 110 107 105 105 107 109 107 106 104 102 100 98 96
54 67 30 329 306 296 285 288 300 317 295 267 278 273 269 273 259 188 170 170 166 155 144 139 135 132 131 124 118 114 113 113 113 113 112 114 111 110 108 108 103 101 99 98
118 336 290 282 273 268 306 313 307 304 309 349 331 285 253 241 238 182 172 147 142 139 127 125 129 135 128 123 122 119 117 117 118 119 115 112 111 110 109 107 104 104 103 101
283 271 284 295 303 320 332 356 358 346 336 326 320 321 219 188 163 154 146 142 136 134 126 124 125 126 124 122 119 116 116 117 119 117 118 116 115 113 112 112 110 107 106 108
353 7 4 351 2 3 356 346 331 318 318 311 295 308 195 163 152 147 143 137 132 127 123 123 125 124 123 122 119 119 119 118 120 119 118 118 117 115 113 112 113 112 112 114